Weather Roundup
Issued by NWS

Home | Current Version | Previous Version | Graphics & Text | Print | Product List | Glossary Off
Versions: 1 2 3 4 5 6 7 8 9 10 11 12 13 14 15 16 17 18 19 20 21 22 23 24 25 26 27 28 29 30 31 32 33 34 35 36 37 38 39 40 41 42 43 44 45 46 47 48 49 50

000
NZUS93 KARX 291359
HRRWXR

CURRENT HOURLY OBSERVATIONS ACROSS
MUCH OF THE UPPER MISSISSIPPI VALLEY
NATIONAL WEATHER SERVICE LA CROSSE WI
900 AM CDT FRI AUG 29 2014


...SOUTHEAST MINNESOTA...


CITY           SKY/WX    TMP DP  RH WIND       PRES   REMARKS
ROCHESTER      PTSUNNY   70  66  87 S13G22    29.84F
ROCHESTER/MAYO CLOUDY    68  67  96 SE12G21   29.83S
WINONA         CLOUDY    70  68  94 SE6       29.84F
AUSTIN         CLOUDY    70  66  88 S9        29.83S
ALBERT LEA     PTSUNNY   70  68  94 S7        29.82S
DODGE CENTER   CLOUDY    70  66  88 S8        29.84R
PRESTON        MOSUNNY   69  69 100 S3        29.86F
OWATONNA       CLOUDY    72  66  83 S5        29.82S
FARIBAULT      CLOUDY    72  66  83 SE7       29.82S
$$

...ELSEWHERE IN MINNESOTA...


CITY           SKY/WX    TMP DP  RH WIND       PRES   REMARKS
MINNEAPOLIS    CLOUDY    70  68  93 S8        29.79F
INTNL FALLS    LGT RAIN  61  60  97 E5        29.82F
DULUTH         DRZL/FOG  61  59  93 SE10      29.81F VSB 1
RED WING       PTSUNNY   72  68  88 SE7       29.81S
REDWOOD FALLS  CLOUDY    72  67  84 S12       29.77S
MANKATO        PTSUNNY   70  64  83 S7        29.80S
WORTHINGTON    CLOUDY    70  66  88 S12       29.82S
FAIRMONT       CLOUDY    66  64  94 S8        29.81S
$$

...SOUTHWEST WISCONSIN...


CITY           SKY/WX    TMP DP  RH WIND       PRES   REMARKS
LA CROSSE      CLOUDY    71  67  87 SE8       29.85F
PRAIRIE DU CHI MOSUNNY   71  67  88 E6        29.87F
BOSCOBEL       CLOUDY    73  68  84 VRB6      29.89F
LONE ROCK      CLOUDY    74  67  78 E6        29.91F
PLATTEVILLE    CLOUDY    69  68  96 S7        29.93F
FORT MC COY    CLOUDY    68  65  90 E3        29.88F
VIROQUA        CLOUDY    67  67 100 SE7       29.90F
WIS DELLS      CLOUDY    67  65  93 SW9       29.92S FOG
$$

...ELSEWHERE IN WISCONSIN...


CITY           SKY/WX    TMP DP  RH WIND       PRES   REMARKS
MILWAUKEE      PTSUNNY   72  67  84 S9        29.97S
MADISON        MOSUNNY   72  66  81 S10       29.93F
GREEN BAY      RAIN      66  65  96 S6        29.95S FOG
EAU CLAIRE     CLOUDY    64  64 100 SE5       29.84F FOG
BLACK RVR FLS  CLOUDY    64  64 100 SE5       29.87S FOG
MEDFORD        FOG       60  60 100 SE8       29.89F VSB 1/2
WAUSAU         CLOUDY    61  60  97 SE8       29.89F FOG
WIS RAPIDS     CLOUDY    65  63  93 SE7       29.91F FOG
MARSHFIELD     FOG       63  62  97 SE8       29.89F VSB 1/2
RICE LAKE      CLOUDY    61  59  95 SE7       29.86S FOG
$$

...NORTHEAST IOWA...


CITY           SKY/WX    TMP DP  RH WIND       PRES   REMARKS
WATERLOO       PTSUNNY   72  69  90 S10       29.85F
DUBUQUE        CLOUDY    70  68  93 S12       29.92F FOG
DECORAH        MOSUNNY   70  68  94 S12       29.87F
MASON CITY     PTSUNNY   73  68  84 S13       29.84S
CHARLES CITY   MOSUNNY   70  68  94 S13G18    29.86F
OELWEIN        CLOUDY    70  70 100 S10       29.89S FOG
$$

...ELSEWHERE IN IOWA...


CITY           SKY/WX    TMP DP  RH WIND       PRES   REMARKS
DES MOINES     MOSUNNY   74  70  87 SE12      29.84S
IOWA CITY      MOSUNNY   73  71  93 S7        29.91S
FORT DODGE     PTSUNNY   73  68  83 S10       29.83F
MARSHALLTOWN   PTSUNNY   71  69  93 SE13      29.86F FOG
CEDAR RAPIDS   PTSUNNY   73  70  90 S12       29.89F FOG
$$

...NORTHERN ILLINOIS...


CITY           SKY/WX    TMP DP  RH WIND       PRES   REMARKS
CHICAGO-OHARE  CLOUDY    74  65  73 S8        29.98S
DUPAGE         PTSUNNY   75  69  81 SE9       29.97F
CHICAGO-MIDWAY CLOUDY    75  67  76 S8        29.98F
MOLINE         SUNNY     75  69  81 S7        29.91F
ROCKFORD       TSTM      70  68  93 S7        29.97F
STERLING       MOSUNNY   75  70  83 S5        29.94F
PEORIA         CLOUDY    76  70  82 S9        29.97R
$$

NOTE: "FAIR" INDICATES FEW OR NO CLOUDS BELOW 12,000 FEET WITH NO
SIGNIFICANT WEATHER AND/OR OBSTRUCTIONS TO VISIBILITY. WIND
SPEEDS ARE IN MILES-PER-HOUR.



USA.gov is the U.S. government's official web portal to all federal, state and local government web resources and services.